,,,PA_Meas_PMT16A,,PR_Meas_QMR101_102,,RH_Meas_QMH101,,SR_Meas_QMS101,,TA_Meas_QMH101,,GenWind,,GenWind,
date,time,status,PA,status,PR,status,RH,status,SR,status,TA,status,DirAvg,status,SpdAvg,
2012-01-12, 00:00:05,VALID,1004.35,VALID,0,VALID,87.5872,VALID,0,VALID,26.0206,VALID,24,VALID,0.632031,
2012-01-12, 00:01:05,VALID,1004.31,VALID,0,VALID,87.4117,VALID,0,VALID,25.9797,VALID,332,VALID,0.750781,
2012-01-12, 00:02:05,VALID,1004.29,VALID,0,VALID,87.3202,VALID,0,VALID,26.0012,VALID,342,VALID,0.926562,
2012-01-12, 00:03:05,VALID,1004.28,VALID,0,VALID,87.4346,VALID,0,VALID,25.9797,VALID,348,VALID,0.385547,
2012-01-12, 00:04:05,VALID,1004.27,VALID,0,VALID,87.549,VALID,0,VALID,26.0012,VALID,332,VALID,0.355469,
2012-01-12, 00:05:05,VALID,1004.23,VALID,0,VALID,87.5643,VALID,0,VALID,25.9602,VALID,351,VALID,0.339063,
2012-01-12, 00:06:05,VALID,1004.25,VALID,0,VALID,87.5643,VALID,0,VALID,26.0206,VALID,355,VALID,0.298828,
2012-01-12, 00:07:05,VALID,1004.21,VALID,0,VALID,87.5185,VALID,0,VALID,25.9992,VALID,342,VALID,0.791016,
2012-01-12, 00:08:05,VALID,1004.19,VALID,0,VALID,87.427,VALID,0,VALID,25.9817,VALID,352,VALID,0.718359,
2012-01-12, 00:09:05,VALID,1004.15,VALID,0,VALID,87.4117,VALID,0,VALID,26.0012,VALID,347,VALID,1.25742,
2012-01-12, 00:10:05,VALID,1004.18,VALID,0,VALID,87.4117,VALID,0,VALID,25.9797,VALID,343,VALID,0.981641,
2012-01-12, 00:11:05,VALID,1004.18,VALID,0,VALID,87.5414,VALID,0,VALID,26.0012,VALID,339,VALID,0.455859,
2012-01-12, 00:12:05,VALID,1004.17,VALID,0,VALID,87.5109,VALID,0,VALID,25.9602,VALID,351,VALID,0.769922,
2012-01-12, 00:13:05,VALID,1004.19,VALID,0,VALID,87.6406,VALID,0,VALID,25.9602,VALID,347,VALID,0.899609,
2012-01-12, 00:14:05,VALID,1004.13,VALID,0,VALID,87.7626,VALID,0,VALID,25.9817,VALID,340,VALID,0.740625,
2012-01-12, 00:15:05,VALID,1004.15,VALID,0,VALID,87.7321,VALID,0.0815089,VALID,25.9408,VALID,2,VALID,0.396875,
2012-01-12, 00:16:05,VALID,1004.12,VALID,0,VALID,87.8389,VALID,0,VALID,25.9622,VALID,360,VALID,0.311328,
2012-01-12, 00:17:05,VALID,1004.13,VALID,0,VALID,87.8618,VALID,0,VALID,25.9427,VALID,18,VALID,1.04766,
2012-01-12, 00:18:05,VALID,1004.11,VALID,0,VALID,87.8923,VALID,0,VALID,25.9427,VALID,351,VALID,1.04844,
2012-01-12, 00:19:05,VALID,1004.13,VALID,0,VALID,87.8389,VALID,0,VALID,25.8823,VALID,348,VALID,1.01211,
2012-01-12, 00:20:05,VALID,1004.12,VALID,0,VALID,87.816,VALID,0,VALID,25.8843,VALID,340,VALID,1.01289,
2012-01-12, 00:21:05,VALID,1004.12,VALID,0,VALID,87.7626,VALID,0,VALID,25.8843,VALID,352,VALID,1.63594,
2012-01-12, 00:22:05,VALID,1004.14,VALID,0,VALID,88.022,VALID,0,VALID,25.8434,VALID,349,VALID,0.427734,
2012-01-12, 00:23:05,VALID,1004.12,VALID,0,VALID,87.9762,VALID,0,VALID,25.8453,VALID,342,VALID,0.866797,
2012-01-12, 00:24:05,VALID,1004.08,VALID,0,VALID,88.022,VALID,0,VALID,25.8239,VALID,357,VALID,0.590625,
2012-01-12, 00:25:05,VALID,1004.09,VALID,0,VALID,88.0831,VALID,0,VALID,25.8453,VALID,360,VALID,0.456641,
2012-01-12, 00:26:05,VALID,1004.06,VALID,0,VALID,87.961,VALID,0,VALID,25.8259,VALID,337,VALID,0.760156,
2012-01-12, 00:27:05,VALID,1004.06,VALID,0,VALID,88.0907,VALID,0,VALID,25.8259,VALID,336,VALID,0.135547,
2012-01-12, 00:28:05,VALID,1004.05,VALID,0,VALID,88.0449,VALID,0,VALID,25.8064,VALID,350,VALID,0.753125,
2012-01-12, 00:29:05,VALID,1004.05,VALID,0,VALID,88.0449,VALID,0,VALID,25.8044,VALID,349,VALID,0.354688,
2012-01-12, 00:30:05,VALID,1004.01,VALID,0,VALID,87.9076,VALID,0,VALID,25.7655,VALID,353,VALID,0.669141,
2012-01-12, 00:31:05,VALID,1003.97,VALID,0,VALID,87.9,VALID,0,VALID,25.8064,VALID,357,VALID,0.510156,
2012-01-12, 00:32:05,VALID,1003.96,VALID,0,VALID,87.8542,VALID,0,VALID,25.8064,VALID,324,VALID,0.689453,
2012-01-12, 00:33:05,VALID,1003.93,VALID,0,VALID,87.8237,VALID,0,VALID,25.8064,VALID,343,VALID,0.701563,
2012-01-12, 00:34:05,VALID,1003.92,VALID,0,VALID,87.9457,VALID,0,VALID,25.8064,VALID,289,VALID,0.183984,
2012-01-12, 00:35:05,VALID,1003.91,VALID,0,VALID,87.8847,VALID,0,VALID,25.785,VALID,314,VALID,0.696094,
2012-01-12, 00:36:05,VALID,1003.89,VALID,0,VALID,87.8923,VALID,0,VALID,25.8064,VALID,314,VALID,0.257422,
2012-01-12, 00:37:05,VALID,1003.85,VALID,0,VALID,87.9076,VALID,0,VALID,25.785,VALID,322,VALID,0.738672,
2012-01-12, 00:38:05,VALID,1003.81,VALID,0,VALID,87.8847,VALID,0,VALID,25.8064,VALID,320,VALID,0.766797,
2012-01-12, 00:39:05,VALID,1003.79,VALID,0,VALID,87.8694,VALID,0,VALID,25.7674,VALID,356,VALID,0.499219,
2012-01-12, 00:40:05,VALID,1003.8,VALID,0,VALID,87.8389,VALID,0,VALID,25.7869,VALID,330,VALID,0.292969,
2012-01-12, 00:41:05,VALID,1003.77,VALID,0,VALID,87.8618,VALID,0,VALID,25.7869,VALID,300,VALID,0.467187,
2012-01-12, 00:42:05,VALID,1003.79,VALID,0,VALID,87.8923,VALID,0,VALID,25.746,VALID,289,VALID,0.815625,
2012-01-12, 00:43:05,VALID,1003.75,VALID,0,VALID,87.816,VALID,0,VALID,25.7674,VALID,295,VALID,0.361328,
2012-01-12, 00:44:05,VALID,1003.75,VALID,0,VALID,87.8466,VALID,0,VALID,25.7869,VALID,327,VALID,0.513281,
2012-01-12, 00:45:05,VALID,1003.77,VALID,0,VALID,87.9915,VALID,0,VALID,25.746,VALID,324,VALID,0.308203,
2012-01-12, 00:46:05,VALID,1003.76,VALID,0,VALID,87.9686,VALID,0,VALID,25.7674,VALID,318,VALID,0.43125,
2012-01-12, 00:47:05,VALID,1003.75,VALID,0,VALID,87.8923,VALID,0,VALID,25.7674,VALID,280,VALID,0.474219,
2012-01-12, 00:48:05,VALID,1003.72,VALID,0,VALID,87.9686,VALID,0,VALID,25.7674,VALID,290,VALID,0.113672,
2012-01-12, 00:49:05,VALID,1003.71,VALID,0,VALID,87.9762,VALID,0,VALID,25.7674,VALID,348,VALID,0.657422,
2012-01-12, 00:50:05,VALID,1003.68,VALID,0,VALID,87.9457,VALID,0,VALID,25.7285,VALID,348,VALID,0.785937,
2012-01-12, 00:51:05,VALID,1003.63,VALID,0,VALID,88.0373,VALID,0,VALID,25.7285,VALID,339,VALID,0.712891,
2012-01-12, 00:52:05,VALID,1003.65,VALID,0,VALID,88.0602,VALID,0,VALID,25.6876,VALID,348,VALID,0.616797,
2012-01-12, 00:53:05,VALID,1003.64,VALID,0,VALID,88.1822,VALID,0,VALID,25.709,VALID,349,VALID,0.654688,
2012-01-12, 00:54:05,VALID,1003.6,VALID,0,VALID,88.3119,VALID,0,VALID,25.67,VALID,351,VALID,0.669141,
2012-01-12, 00:55:05,VALID,1003.59,VALID,0,VALID,88.4492,VALID,0,VALID,25.6311,VALID,351,VALID,0.787891,
2012-01-12, 00:56:05,VALID,1003.58,VALID,0,VALID,88.6476,VALID,0,VALID,25.5707,VALID,350,VALID,0.611328,
2012-01-12, 00:57:05,VALID,1003.56,VALID,0,VALID,88.8612,VALID,0,VALID,25.5318,VALID,349,VALID,0.760156,
2012-01-12, 00:58:05,VALID,1003.57,VALID,0,VALID,88.9909,VALID,0,VALID,25.5142,VALID,345,VALID,0.543359,
2012-01-12, 00:59:05,VALID,1003.54,VALID,0,VALID,89.1664,VALID,0,VALID,25.4734,VALID,345,VALID,0.611719,
2012-01-12, 01:00:05,VALID,1003.54,VALID,0,VALID,89.2426,VALID,0,VALID,25.4753,VALID,345,VALID,0.505859,
2012-01-12, 01:01:05,VALID,1003.51,VALID,0,VALID,89.38,VALID,0,VALID,25.4558,VALID,342,VALID,0.455859,
2012-01-12, 01:02:05,VALID,1003.5,VALID,0,VALID,89.4563,VALID,0,VALID,25.4363,VALID,344,VALID,0.628125,
2012-01-12, 01:03:05,VALID,1003.48,VALID,0,VALID,89.5402,VALID,0,VALID,25.4169,VALID,344,VALID,0.462891,
2012-01-12, 01:04:05,VALID,1003.5,VALID,0,VALID,89.6317,VALID,0,VALID,25.3779,VALID,345,VALID,0.526563,
2012-01-12, 01:05:05,VALID,1003.5,VALID,0,VALID,89.708,VALID,0,VALID,25.3779,VALID,346,VALID,0.444922,
2012-01-12, 01:06:05,VALID,1003.47,VALID,0,VALID,89.7461,VALID,0,VALID,25.3584,VALID,347,VALID,0.50625,
2012-01-12, 01:07:05,VALID,1003.44,VALID,0,VALID,89.8606,VALID,0,VALID,25.339,VALID,346,VALID,0.732031,
2012-01-12, 01:08:05,VALID,1003.44,VALID,0,VALID,89.8224,VALID,0,VALID,25.3584,VALID,346,VALID,0.532031,
2012-01-12, 01:09:05,VALID,1003.41,VALID,0,VALID,89.6851,VALID,0,VALID,25.3779,VALID,346,VALID,0.707422,
2012-01-12, 01:10:05,VALID,1003.4,VALID,0,VALID,89.6622,VALID,0,VALID,25.3974,VALID,347,VALID,0.485156,
2012-01-12, 01:11:05,VALID,1003.39,VALID,0,VALID,89.5325,VALID,0,VALID,25.4169,VALID,347,VALID,0.327734,
2012-01-12, 01:12:05,VALID,1003.32,VALID,0,VALID,89.4944,VALID,0,VALID,25.3955,VALID,342,VALID,0.392188,
2012-01-12, 01:13:05,VALID,1003.37,VALID,0,VALID,89.38,VALID,0,VALID,25.4363,VALID,342,VALID,0.628906,
2012-01-12, 01:14:05,VALID,1003.33,VALID,0,VALID,89.1969,VALID,0,VALID,25.4539,VALID,348,VALID,0.723828,
2012-01-12, 01:15:05,VALID,1003.33,VALID,0,VALID,88.907,VALID,0,VALID,25.4928,VALID,342,VALID,1.06523,
2012-01-12, 01:16:05,VALID,1003.32,VALID,0,VALID,88.7391,VALID,0,VALID,25.5707,VALID,351,VALID,0.800781,
2012-01-12, 01:17:05,VALID,1003.32,VALID,0,VALID,88.5026,VALID,0,VALID,25.6116,VALID,354,VALID,0.770703,
2012-01-12, 01:18:05,VALID,1003.33,VALID,0,VALID,88.3653,VALID,0,VALID,25.6311,VALID,352,VALID,0.756641,
2012-01-12, 01:19:05,VALID,1003.32,VALID,0,VALID,88.2051,VALID,0,VALID,25.6486,VALID,351,VALID,0.652734,
2012-01-12, 01:20:05,VALID,1003.33,VALID,0,VALID,88.0678,VALID,0,VALID,25.6681,VALID,345,VALID,1.03164,
2012-01-12, 01:21:05,VALID,1003.33,VALID,0,VALID,87.9076,VALID,0,VALID,25.7285,VALID,331,VALID,0.570313,
2012-01-12, 01:22:05,VALID,1003.36,VALID,0,VALID,87.8008,VALID,0,VALID,25.7265,VALID,337,VALID,0.566797,
2012-01-12, 01:23:05,VALID,1003.35,VALID,0,VALID,87.755,VALID,0,VALID,25.7265,VALID,344,VALID,0.430078,
2012-01-12, 01:24:05,VALID,1003.35,VALID,0,VALID,87.7169,VALID,0,VALID,25.7674,VALID,334,VALID,0.558594,
2012-01-12, 01:25:05,VALID,1003.35,VALID,0,VALID,87.5338,VALID,0,VALID,25.748,VALID,347,VALID,0.933984,
2012-01-12, 01:26:05,VALID,1003.39,VALID,0,VALID,87.6024,VALID,0,VALID,25.7285,VALID,349,VALID,0.848437,
2012-01-12, 01:27:05,VALID,1003.35,VALID,0,VALID,87.6253,VALID,0,VALID,25.7071,VALID,329,VALID,0.616797,
2012-01-12, 01:28:05,VALID,1003.37,VALID,0,VALID,87.549,VALID,0,VALID,25.7285,VALID,347,VALID,0.835156,
2012-01-12, 01:29:05,VALID,1003.37,VALID,0,VALID,87.7169,VALID,0,VALID,25.7285,VALID,3,VALID,0.482031,
2012-01-12, 01:30:05,VALID,1003.34,VALID,0,VALID,87.6711,VALID,0,VALID,25.7071,VALID,341,VALID,0.45625,
2012-01-12, 01:31:05,VALID,1003.34,VALID,0,VALID,87.5795,VALID,0,VALID,25.7071,VALID,349,VALID,0.665625,
2012-01-12, 01:32:05,VALID,1003.33,VALID,0,VALID,87.5261,VALID,0,VALID,25.7285,VALID,348,VALID,0.898438,
2012-01-12, 01:33:05,VALID,1003.31,VALID,0,VALID,87.5719,VALID,0,VALID,25.7285,VALID,347,VALID,0.617969,
2012-01-12, 01:34:05,VALID,1003.31,VALID,0,VALID,87.6253,VALID,0,VALID,25.7071,VALID,360,VALID,0.662109,
2012-01-12, 01:35:05,VALID,1003.31,VALID,0,VALID,87.6711,VALID,0,VALID,25.6681,VALID,359,VALID,0.523438,
2012-01-12, 01:36:05,VALID,1003.32,VALID,0,VALID,87.6787,VALID,0,VALID,25.6895,VALID,359,VALID,0.508203,
2012-01-12, 01:37:05,VALID,1003.3,VALID,0,VALID,87.7169,VALID,0,VALID,25.6895,VALID,353,VALID,0.644531,
2012-01-12, 01:38:05,VALID,1003.31,VALID,0,VALID,87.7932,VALID,0,VALID,25.6486,VALID,350,VALID,0.608984,
2012-01-12, 01:39:05,VALID,1003.3,VALID,0,VALID,87.8313,VALID,0,VALID,25.6895,VALID,350,VALID,0.711328,
2012-01-12, 01:40:05,VALID,1003.31,VALID,0,VALID,87.7932,VALID,0,VALID,25.6681,VALID,347,VALID,0.687891,
2012-01-12, 01:41:05,VALID,1003.29,VALID,0,VALID,87.816,VALID,0,VALID,25.6876,VALID,344,VALID,0.488672,
2012-01-12, 01:42:05,VALID,1003.26,VALID,0,VALID,87.8618,VALID,0,VALID,25.709,VALID,323,VALID,0.0949219,
2012-01-12, 01:43:05,VALID,1003.22,VALID,0,VALID,87.9076,VALID,0,VALID,25.7285,VALID,341,VALID,0.220703,
2012-01-12, 01:44:05,VALID,1003.18,VALID,0,VALID,87.9305,VALID,0,VALID,25.7071,VALID,353,VALID,0.635938,
2012-01-12, 01:45:05,VALID,1003.17,VALID,0,VALID,87.8542,VALID,0,VALID,25.7285,VALID,352,VALID,0.365625,
2012-01-12, 01:46:05,VALID,1003.17,VALID,0,VALID,87.8618,VALID,0,VALID,25.748,VALID,352,VALID,0.0910156,
2012-01-12, 01:47:05,VALID,1003.15,VALID,0,VALID,87.9381,VALID,0,VALID,25.7265,VALID,342,VALID,0.152344,
2012-01-12, 01:48:05,VALID,1003.13,VALID,0,VALID,88.0525,VALID,0,VALID,25.748,VALID,342,VALID,0.0921875,
2012-01-12, 01:49:05,VALID,1003.11,VALID,0,VALID,87.961,VALID,0,VALID,25.7071,VALID,358,VALID,0.597266,
2012-01-12, 01:50:05,VALID,1003.09,VALID,0,VALID,87.9991,VALID,0,VALID,25.7285,VALID,358,VALID,0.145703,
2012-01-12, 01:51:05,VALID,1003.08,VALID,0,VALID,88.0525,VALID,0,VALID,25.7285,VALID,10,VALID,0.578125,
2012-01-12, 01:52:05,VALID,1003.07,VALID,0,VALID,88.0525,VALID,0,VALID,25.7285,VALID,350,VALID,0.463281,
2012-01-12, 01:53:05,VALID,1003.06,VALID,0,VALID,88.2356,VALID,0,VALID,25.7285,VALID,357,VALID,0.421875,
2012-01-12, 01:54:05,VALID,1003.08,VALID,0,VALID,88.2127,VALID,0,VALID,25.7285,VALID,357,VALID,0.169922,
2012-01-12, 01:55:05,VALID,1003.06,VALID,0,VALID,88.2509,VALID,0,VALID,25.7285,VALID,355,VALID,0.69375,
2012-01-12, 01:56:05,VALID,1003.07,VALID,0,VALID,88.2127,VALID,0,VALID,25.7071,VALID,348,VALID,0.20625,
2012-01-12, 01:57:05,VALID,1003.06,VALID,0,VALID,88.2585,VALID,0,VALID,25.709,VALID,348,VALID,0.279297,
2012-01-12, 01:58:05,VALID,1003.04,VALID,0,VALID,88.3043,VALID,0,VALID,25.709,VALID,348,VALID,0.230078,
2012-01-12, 01:59:05,VALID,1003.03,VALID,0,VALID,88.3882,VALID,0,VALID,25.709,VALID,348,VALID,0,
2012-01-12, 02:00:05,VALID,1002.99,VALID,0,VALID,88.3577,VALID,0,VALID,25.6876,VALID,348,VALID,0.485547,
2012-01-12, 02:01:05,VALID,1003,VALID,0,VALID,88.3653,VALID,0,VALID,25.6895,VALID,347,VALID,0.366797,
2012-01-12, 02:02:05,VALID,1003.01,VALID,0,VALID,88.4416,VALID,0,VALID,25.709,VALID,318,VALID,0.592969,
2012-01-12, 02:03:05,VALID,1002.99,VALID,0,VALID,88.4721,VALID,0,VALID,25.709,VALID,343,VALID,0.548828,
2012-01-12, 02:04:05,VALID,1003,VALID,0,VALID,88.3958,VALID,0,VALID,25.6895,VALID,332,VALID,0.671875,
2012-01-12, 02:05:05,VALID,1003,VALID,0,VALID,88.3882,VALID,0,VALID,25.709,VALID,335,VALID,0.277734,
2012-01-12, 02:06:05,VALID,1002.99,VALID,0,VALID,88.4798,VALID,0,VALID,25.709,VALID,335,VALID,0,
2012-01-12, 02:07:05,VALID,1002.99,VALID,0,VALID,88.4721,VALID,0,VALID,25.6895,VALID,341,VALID,0.737109,
2012-01-12, 02:08:05,VALID,1002.97,VALID,0,VALID,88.3729,VALID,0,VALID,25.6895,VALID,348,VALID,0.812891,
2012-01-12, 02:09:05,VALID,1002.98,VALID,0,VALID,88.3806,VALID,0,VALID,25.6895,VALID,349,VALID,0.882422,
2012-01-12, 02:10:05,VALID,1002.96,VALID,0,VALID,88.3348,VALID,0,VALID,25.6486,VALID,344,VALID,0.719141,
2012-01-12, 02:11:05,VALID,1002.96,VALID,0,VALID,88.3882,VALID,0,VALID,25.67,VALID,360,VALID,0.641797,
2012-01-12, 02:12:05,VALID,1002.95,VALID,0,VALID,88.4645,VALID,0,VALID,25.67,VALID,356,VALID,0.675391,
2012-01-12, 02:13:05,VALID,1002.97,VALID,0,VALID,88.4416,VALID,0,VALID,25.6506,VALID,356,VALID,0.5625,
2012-01-12, 02:14:05,VALID,1002.97,VALID,0,VALID,88.5026,VALID,0,VALID,25.6292,VALID,353,VALID,0.438672,
2012-01-12, 02:15:05,VALID,1002.94,VALID,0,VALID,88.4874,VALID,0,VALID,25.6097,VALID,339,VALID,0.679688,
2012-01-12, 02:16:05,VALID,1002.93,VALID,0,VALID,88.5484,VALID,0,VALID,25.6097,VALID,339,VALID,0.194141,
2012-01-12, 02:17:05,VALID,1002.9,VALID,0,VALID,88.64,VALID,0,VALID,25.6097,VALID,339,VALID,0.254687,
2012-01-12, 02:18:05,VALID,1002.88,VALID,0,VALID,88.7315,VALID,0,VALID,25.6311,VALID,339,VALID,0.673437,
2012-01-12, 02:19:05,VALID,1002.88,VALID,0,VALID,88.7773,VALID,0,VALID,25.6311,VALID,343,VALID,0.603516,
2012-01-12, 02:20:05,VALID,1002.86,VALID,0,VALID,88.7544,VALID,0,VALID,25.6097,VALID,343,VALID,0.666016,
2012-01-12, 02:21:05,VALID,1002.86,VALID,0,VALID,88.7773,VALID,0.0815089,VALID,25.6311,VALID,345,VALID,0.614062,
2012-01-12, 02:22:05,VALID,1002.87,VALID,0,VALID,88.7773,VALID,0,VALID,25.6506,VALID,339,VALID,0.601172,
2012-01-12, 02:23:05,VALID,1002.87,VALID,0,VALID,88.7391,VALID,0,VALID,25.6486,VALID,337,VALID,0.744141,
2012-01-12, 02:24:05,VALID,1002.86,VALID,0,VALID,88.64,VALID,0,VALID,25.6681,VALID,330,VALID,0.741406,
2012-01-12, 02:25:05,VALID,1002.83,VALID,0,VALID,88.4416,VALID,0,VALID,25.7071,VALID,351,VALID,0.968359,
2012-01-12, 02:26:05,VALID,1002.85,VALID,0,VALID,88.3348,VALID,0,VALID,25.748,VALID,337,VALID,0.757422,
2012-01-12, 02:27:05,VALID,1002.82,VALID,0,VALID,88.3195,VALID,0,VALID,25.746,VALID,350,VALID,0.914063,
2012-01-12, 02:28:05,VALID,1002.85,VALID,0,VALID,88.2204,VALID,0,VALID,25.7869,VALID,348,VALID,0.633594,
2012-01-12, 02:29:05,VALID,1002.81,VALID,0,VALID,88.1899,VALID,0,VALID,25.8064,VALID,350,VALID,0.601172,
2012-01-12, 02:30:05,VALID,1002.83,VALID,0,VALID,88.1822,VALID,0,VALID,25.7655,VALID,347,VALID,0.739844,
2012-01-12, 02:31:05,VALID,1002.8,VALID,0,VALID,88.2356,VALID,0,VALID,25.8064,VALID,342,VALID,0.600781,
2012-01-12, 02:32:05,VALID,1002.82,VALID,0,VALID,88.2433,VALID,0,VALID,25.8064,VALID,342,VALID,0.178516,
2012-01-12, 02:33:05,VALID,1002.81,VALID,0,VALID,88.167,VALID,0,VALID,25.8064,VALID,342,VALID,0.416406,
2012-01-12, 02:34:05,VALID,1002.82,VALID,0,VALID,88.1822,VALID,0,VALID,25.785,VALID,342,VALID,0.496875,
2012-01-12, 02:35:05,VALID,1002.84,VALID,0,VALID,88.289,VALID,0,VALID,25.7869,VALID,343,VALID,0.455469,
2012-01-12, 02:36:05,VALID,1002.8,VALID,0,VALID,88.3653,VALID,0,VALID,25.7869,VALID,337,VALID,0.0230469,
2012-01-12, 02:37:05,VALID,1002.82,VALID,0,VALID,88.5255,VALID,0,VALID,25.7674,VALID,345,VALID,0.678906,
2012-01-12, 02:38:05,VALID,1002.84,VALID,0,VALID,88.6476,VALID,0,VALID,25.7674,VALID,351,VALID,0.613672,
2012-01-12, 02:39:05,VALID,1002.82,VALID,0,VALID,88.7239,VALID,0,VALID,25.7674,VALID,351,VALID,0.808594,
2012-01-12, 02:40:05,VALID,1002.8,VALID,0,VALID,88.7925,VALID,0,VALID,25.7869,VALID,316,VALID,0.620703,
2012-01-12, 02:41:05,VALID,1002.84,VALID,0,VALID,88.8078,VALID,0,VALID,25.7869,VALID,345,VALID,0.953516,
2012-01-12, 02:42:04,VALID,1002.81,VALID,0,VALID,88.762,VALID,0,VALID,25.7869,VALID,344,VALID,1.06641,
2012-01-12, 02:43:04,VALID,1002.78,VALID,0,VALID,88.7391,VALID,0,VALID,25.8064,VALID,354,VALID,1.23828,
2012-01-12, 02:44:04,VALID,1002.78,VALID,0,VALID,88.7544,VALID,0,VALID,25.785,VALID,347,VALID,1.31133,
2012-01-12, 02:45:04,VALID,1002.75,VALID,0,VALID,88.7773,VALID,0,VALID,25.785,VALID,360,VALID,1.13789,
2012-01-12, 02:46:04,VALID,1002.72,VALID,0,VALID,88.8078,VALID,0,VALID,25.8064,VALID,4,VALID,1.18008,
2012-01-12, 02:47:04,VALID,1002.72,VALID,0,VALID,88.7773,VALID,0,VALID,25.8259,VALID,8,VALID,0.813281,
2012-01-12, 02:48:04,VALID,1002.71,VALID,0,VALID,88.7315,VALID,0,VALID,25.8259,VALID,290,VALID,1.33789,
2012-01-12, 02:49:04,VALID,1002.71,VALID,0,VALID,88.6781,VALID,0,VALID,25.8044,VALID,338,VALID,0.285937,
2012-01-12, 02:50:04,VALID,1002.71,VALID,0,VALID,88.6247,VALID,0,VALID,25.8453,VALID,343,VALID,0.590625,
2012-01-12, 02:51:04,VALID,1002.69,VALID,0,VALID,88.495,VALID,0,VALID,25.8453,VALID,351,VALID,0.958984,
2012-01-12, 02:52:04,VALID,1002.65,VALID,0,VALID,88.3195,VALID,0,VALID,25.8843,VALID,339,VALID,0.775781,
2012-01-12, 02:53:04,VALID,1002.64,VALID,0,VALID,88.2433,VALID,0,VALID,25.8823,VALID,3,VALID,1.15859,
2012-01-12, 02:54:04,VALID,1002.66,VALID,0,VALID,88.0602,VALID,0,VALID,25.9038,VALID,351,VALID,0.873828,
2012-01-12, 02:55:04,VALID,1002.65,VALID,0,VALID,87.9915,VALID,0,VALID,25.9232,VALID,348,VALID,0.749609,
2012-01-12, 02:56:04,VALID,1002.63,VALID,0,VALID,87.9762,VALID,0,VALID,25.9038,VALID,350,VALID,0.685547,
2012-01-12, 02:57:04,VALID,1002.6,VALID,0,VALID,87.8847,VALID,0,VALID,25.9232,VALID,342,VALID,1.10938,
2012-01-12, 02:58:04,VALID,1002.61,VALID,0,VALID,87.7169,VALID,0,VALID,25.9427,VALID,343,VALID,0.645703,
2012-01-12, 02:59:04,VALID,1002.62,VALID,0,VALID,87.6711,VALID,0,VALID,25.9427,VALID,339,VALID,0.116797,
2012-01-12, 03:00:04,VALID,1002.63,VALID,0,VALID,87.694,VALID,0,VALID,25.9642,VALID,289,VALID,0.30625,
2012-01-12, 03:01:04,VALID,1002.58,VALID,0,VALID,87.7092,VALID,0,VALID,25.9622,VALID,355,VALID,0.392969,
2012-01-12, 03:02:04,VALID,1002.57,VALID,0,VALID,87.6024,VALID,0,VALID,25.9622,VALID,348,VALID,0.999609,
2012-01-12, 03:03:04,VALID,1002.57,VALID,0,VALID,87.5261,VALID,0,VALID,25.9602,VALID,343,VALID,0.455859,
2012-01-12, 03:04:04,VALID,1002.58,VALID,0,VALID,87.5872,VALID,0,VALID,25.9817,VALID,333,VALID,0.710547,
2012-01-12, 03:05:04,VALID,1002.6,VALID,0,VALID,87.5643,VALID,0,VALID,25.9622,VALID,335,VALID,0.863672,
2012-01-12, 03:06:04,VALID,1002.63,VALID,0,VALID,87.5948,VALID,0,VALID,25.9408,VALID,343,VALID,1.01484,
2012-01-12, 03:07:04,VALID,1002.66,VALID,0,VALID,87.5567,VALID,0,VALID,25.9427,VALID,356,VALID,0.563672,
2012-01-12, 03:08:04,VALID,1002.69,VALID,0,VALID,87.5261,VALID,0,VALID,25.9427,VALID,359,VALID,0.783203,
2012-01-12, 03:09:04,VALID,1002.69,VALID,0,VALID,87.3583,VALID,0,VALID,25.9622,VALID,344,VALID,1.15,
2012-01-12, 03:10:04,VALID,1002.72,VALID,0,VALID,87.2744,VALID,0,VALID,25.9622,VALID,346,VALID,0.821094,
2012-01-12, 03:11:04,VALID,1002.73,VALID,0,VALID,87.1447,VALID,0,VALID,25.9622,VALID,352,VALID,0.998438,
2012-01-12, 03:12:04,VALID,1002.76,VALID,0,VALID,87.1447,VALID,0,VALID,25.9602,VALID,357,VALID,0.542969,
2012-01-12, 03:13:04,VALID,1002.75,VALID,0,VALID,87.1523,VALID,0,VALID,25.9408,VALID,350,VALID,0.585156,
2012-01-12, 03:14:04,VALID,1002.79,VALID,0,VALID,87.1066,VALID,0,VALID,25.9622,VALID,351,VALID,0.364844,
2012-01-12, 03:15:04,VALID,1002.76,VALID,0,VALID,87.2057,VALID,0,VALID,25.9622,VALID,351,VALID,0.308594,
2012-01-12, 03:16:04,VALID,1002.76,VALID,0,VALID,87.1905,VALID,0,VALID,25.9427,VALID,348,VALID,0.771875,
2012-01-12, 03:17:04,VALID,1002.78,VALID,0,VALID,87.2515,VALID,0,VALID,25.9427,VALID,346,VALID,0.605859,
2012-01-12, 03:18:04,VALID,1002.77,VALID,0,VALID,87.282,VALID,0,VALID,25.9018,VALID,336,VALID,0.537109,
2012-01-12, 03:19:04,VALID,1002.79,VALID,0,VALID,87.3049,VALID,0,VALID,25.9018,VALID,330,VALID,0.476953,
2012-01-12, 03:20:04,VALID,1002.82,VALID,0,VALID,87.3583,VALID,0,VALID,25.9232,VALID,345,VALID,0.803516,
2012-01-12, 03:21:04,VALID,1002.83,VALID,0,VALID,87.3888,VALID,0,VALID,25.8843,VALID,337,VALID,0.707031,
2012-01-12, 03:22:04,VALID,1002.83,VALID,0,VALID,87.4956,VALID,0,VALID,25.8843,VALID,346,VALID,0.728125,
2012-01-12, 03:23:04,VALID,1002.82,VALID,0,VALID,87.5719,VALID,0,VALID,25.8648,VALID,349,VALID,0.6625,
2012-01-12, 03:24:04,VALID,1002.84,VALID,0,VALID,87.6177,VALID,0,VALID,25.8648,VALID,348,VALID,0.478906,
2012-01-12, 03:25:04,VALID,1002.84,VALID,0,VALID,87.7398,VALID,0,VALID,25.8239,VALID,347,VALID,0.192188,
2012-01-12, 03:26:04,VALID,1002.85,VALID,0,VALID,87.8237,VALID,0,VALID,25.8044,VALID,341,VALID,0.569922,
2012-01-12, 03:27:04,VALID,1002.84,VALID,0,VALID,87.8694,VALID,0,VALID,25.8239,VALID,347,VALID,0.676172,
2012-01-12, 03:28:04,VALID,1002.82,VALID,0,VALID,87.8694,VALID,0,VALID,25.8044,VALID,354,VALID,0.683203,
2012-01-12, 03:29:04,VALID,1002.82,VALID,0,VALID,87.8847,VALID,0,VALID,25.8044,VALID,348,VALID,0.828125,
2012-01-12, 03:30:04,VALID,1002.83,VALID,0,VALID,87.9457,VALID,0,VALID,25.8044,VALID,346,VALID,0.772656,
2012-01-12, 03:31:04,VALID,1002.8,VALID,0,VALID,87.9381,VALID,0,VALID,25.8239,VALID,336,VALID,0.759375,
2012-01-12, 03:32:04,VALID,1002.82,VALID,0,VALID,87.9228,VALID,0,VALID,25.8473,VALID,344,VALID,0.616016,
2012-01-12, 03:33:04,VALID,1002.81,VALID,0,VALID,88.0296,VALID,0,VALID,25.8044,VALID,351,VALID,0.728906,
2012-01-12, 03:34:04,VALID,1002.82,VALID,0,VALID,88.0373,VALID,0,VALID,25.8453,VALID,339,VALID,0.342969,
2012-01-12, 03:35:04,VALID,1002.82,VALID,0,VALID,88.1288,VALID,0,VALID,25.8239,VALID,339,VALID,0.000390625,
2012-01-12, 03:36:04,VALID,1002.8,VALID,0,VALID,88.1822,VALID,0,VALID,25.8648,VALID,354,VALID,0.471094,
2012-01-12, 03:37:04,VALID,1002.83,VALID,0,VALID,88.2814,VALID,0,VALID,25.8239,VALID,355,VALID,0.240625,
2012-01-12, 03:38:04,VALID,1002.82,VALID,0,VALID,88.3195,VALID,0,VALID,25.8648,VALID,347,VALID,0.327344,
2012-01-12, 03:39:04,VALID,1002.84,VALID,0,VALID,88.2738,VALID,0,VALID,25.8434,VALID,354,VALID,0.507422,
2012-01-12, 03:40:04,VALID,1002.81,VALID,0,VALID,88.2967,VALID,0,VALID,25.8648,VALID,1,VALID,1.20938,
2012-01-12, 03:41:04,VALID,1002.85,VALID,0,VALID,88.2661,VALID,0,VALID,25.8843,VALID,345,VALID,0.847656,
2012-01-12, 03:42:04,VALID,1002.84,VALID,0,VALID,88.2661,VALID,0,VALID,25.9057,VALID,354,VALID,1.1293,
2012-01-12, 03:43:04,VALID,1002.86,VALID,0,VALID,88.2433,VALID,0,VALID,25.8629,VALID,341,VALID,0.700781,
2012-01-12, 03:44:04,VALID,1002.84,VALID,0,VALID,88.289,VALID,0,VALID,25.8843,VALID,349,VALID,0.940234,